Terminal Aerodrome Forecast
Issued by NWS Columbia, SC

Home | Current Version | Previous Version | Text Only | Print | Product List | Glossary On
Versions: 1 2 3 4 5 6 7 8 9 10 11 12 13 14 15 16 17 18 19 20 21 22 23 24 25 26 27 28 29 30 31 32 33 34 35 36 37 38 39 40 41 42 43 44 45 46 47 48 49 50
000
FTAK31 PAJN 251212 AAA
TAFAGS
TAF AMD
PAGS 251212Z 2512/2612 00000KT 4SM BR SCT004 BKN060
      TEMPO 2512/2516 1/2SM FG BKN005
     FM251700 VRB04KT P6SM SCT060
     FM260900 VRB03KT P6SM SCT030 BKN050 PROB30 2609/2612 6SM -RA BR
      OVC040
      AMD LTD TO CLD VIS AND WIND=

USA.gov is the U.S. government's official web portal to all federal, state and local government web resources and services.